Location: Brienzwiler
(46.7508°N, 8.1014°E)
Time: 08:02:28
(UTC+00:00)

SL-8 Rocket - Pass Details

Date: 05 July 2020
Orbit: 957 x 990 km, 82.9° (Epoch: 05 August)

Event Time Altitude Azimuth Distance (km) Brightness Sun altitude
Exits shadow 23:31:00 30° 217° (SW) 1,661 4.8 -20.6°
Maximum altitude 23:34:00 57° 283° (WNW) 1,121 4.3 -20.6°
Drops below altitude 10° 23:40:05 10° 2° (N) 2,701 7.5 -20.6°
Sets 23:42:39 0° 6° (N) 3,651 8.6 -20.5°
